date,time,SUV Intensity [MED/Hr],UV Index,Daily total [MED],Since Last [MED]
12/11/2023,00:03:26,0.000,0.0,0.0,0.0
12/11/2023,00:04:27,0.000,0.0,0.0,0.0
12/11/2023,00:05:27,-0.000,0.0,0.0,0.0
12/11/2023,00:06:26,-0.000,0.0,0.0,0.0
12/11/2023,00:07:27,0.000,0.0,0.0,0.0
12/11/2023,00:08:27,0.000,0.0,0.0,0.0
12/11/2023,00:09:26,0.000,0.0,0.0,0.0
12/11/2023,00:10:26,0.000,0.0,0.0,0.0
12/11/2023,00:11:26,0.000,0.0,0.0,0.0
12/11/2023,00:12:26,0.000,0.0,0.0,0.0
12/11/2023,00:13:26,0.000,0.0,0.0,0.0
12/11/2023,00:14:26,0.000,0.0,0.0,0.0
12/11/2023,00:15:26,0.000,0.0,0.0,0.0
12/11/2023,00:16:27,0.001,0.0,0.0,0.0
12/11/2023,00:17:27,0.000,0.0,0.0,0.0
12/11/2023,00:18:27,0.000,0.0,0.0,0.0
12/11/2023,00:19:26,0.000,0.0,0.0,0.0
12/11/2023,00:20:27,-0.000,0.0,0.0,0.0
12/11/2023,00:21:27,-0.000,0.0,0.0,0.0
12/11/2023,00:22:26,0.000,0.0,0.0,0.0
12/11/2023,00:23:26,0.000,0.0,0.0,0.0
12/11/2023,00:24:26,0.000,0.0,0.0,0.0
12/11/2023,00:25:26,0.001,0.0,0.0,0.0
12/11/2023,00:26:27,0.000,0.0,0.0,0.0
12/11/2023,00:27:27,0.000,0.0,0.0,0.0
12/11/2023,00:28:26,0.000,0.0,0.0,0.0
12/11/2023,00:29:26,0.000,0.0,0.0,0.0
12/11/2023,00:30:26,0.000,0.0,0.0,0.0
12/11/2023,00:31:27,0.000,0.0,0.0,0.0
12/11/2023,00:32:27,0.000,0.0,0.0,0.0
12/11/2023,00:33:26,-0.001,0.0,0.0,0.0
12/11/2023,00:34:26,-0.000,0.0,0.0,0.0
12/11/2023,00:35:26,0.000,0.0,0.0,0.0
12/11/2023,00:36:27,-0.001,0.0,0.0,0.0
12/11/2023,00:37:26,0.001,0.0,0.0,0.0
12/11/2023,00:38:27,0.000,0.0,0.0,0.0
12/11/2023,00:39:26,-0.000,0.0,0.0,0.0
12/11/2023,00:40:27,0.000,0.0,0.0,0.0
12/11/2023,00:41:27,0.000,0.0,0.0,0.0
12/11/2023,00:42:27,0.000,0.0,0.0,0.0
12/11/2023,00:43:26,0.000,0.0,0.0,0.0
12/11/2023,00:44:26,0.001,0.0,0.0,0.0
12/11/2023,00:45:27,-0.001,0.0,0.0,0.0
12/11/2023,00:46:26,0.000,0.0,0.0,0.0
12/11/2023,00:47:27,0.000,0.0,0.0,0.0
12/11/2023,00:48:26,0.000,0.0,0.0,0.0
12/11/2023,00:49:26,0.000,0.0,0.0,0.0
12/11/2023,00:50:26,-0.001,0.0,0.0,0.0
12/11/2023,00:51:26,-0.000,0.0,0.0,0.0
12/11/2023,00:52:27,0.000,0.0,0.0,0.0
12/11/2023,00:53:27,-0.001,0.0,0.0,0.0
12/11/2023,00:54:26,0.001,0.0,0.0,0.0
12/11/2023,00:55:27,0.000,0.0,0.0,0.0
12/11/2023,00:56:27,0.000,0.0,0.0,0.0
12/11/2023,00:57:27,0.000,0.0,0.0,0.0
12/11/2023,00:58:26,0.000,0.0,0.0,0.0
12/11/2023,00:59:26,0.000,0.0,0.0,0.0
12/11/2023,01:00:26,0.000,0.0,0.0,0.0
12/11/2023,01:01:26,0.000,0.0,0.0,0.0
12/11/2023,01:02:27,0.000,0.0,0.0,0.0
12/11/2023,01:03:26,0.000,0.0,0.0,0.0
12/11/2023,01:04:27,0.000,0.0,0.0,0.0
12/11/2023,01:05:26,0.000,0.0,0.0,0.0
12/11/2023,01:06:27,0.001,0.0,0.0,0.0
12/11/2023,01:07:27,0.000,0.0,0.0,0.0
12/11/2023,01:08:26,0.000,0.0,0.0,0.0
12/11/2023,01:09:27,-0.000,0.0,0.0,0.0
12/11/2023,01:10:27,-0.000,0.0,0.0,0.0
12/11/2023,01:11:27,-0.000,0.0,0.0,0.0
12/11/2023,01:12:26,-0.000,0.0,0.0,0.0
12/11/2023,01:13:27,-0.000,0.0,0.0,0.0
12/11/2023,01:14:27,0.000,0.0,0.0,0.0
12/11/2023,01:15:27,-0.001,0.0,0.0,0.0
12/11/2023,01:16:26,0.000,0.0,0.0,0.0
12/11/2023,01:17:27,-0.001,0.0,0.0,0.0
12/11/2023,01:18:27,0.000,0.0,0.0,0.0
12/11/2023,01:19:26,-0.001,0.0,0.0,0.0
12/11/2023,01:20:27,0.000,0.0,0.0,0.0
12/11/2023,01:21:27,0.000,0.0,0.0,0.0
12/11/2023,01:22:27,0.000,0.0,0.0,0.0
12/11/2023,01:23:26,0.001,0.0,0.0,0.0
12/11/2023,01:24:26,0.000,0.0,0.0,0.0
12/11/2023,01:25:26,0.000,0.0,0.0,0.0
12/11/2023,01:26:26,0.000,0.0,0.0,0.0
12/11/2023,01:27:27,0.000,0.0,0.0,0.0
12/11/2023,01:28:26,0.000,0.0,0.0,0.0
12/11/2023,01:29:27,0.001,0.0,0.0,0.0
12/11/2023,01:30:27,-0.000,0.0,0.0,0.0
12/11/2023,01:31:27,-0.000,0.0,0.0,0.0
12/11/2023,01:32:27,-0.001,0.0,0.0,0.0
12/11/2023,01:33:27,0.000,0.0,0.0,0.0
12/11/2023,01:34:26,0.000,0.0,0.0,0.0
12/11/2023,01:35:27,0.000,0.0,0.0,0.0
12/11/2023,01:36:27,0.001,0.0,0.0,0.0
12/11/2023,01:37:27,0.000,0.0,0.0,0.0
12/11/2023,01:38:26,0.000,0.0,0.0,0.0
12/11/2023,01:39:26,0.000,0.0,0.0,0.0
12/11/2023,01:40:27,0.000,0.0,0.0,0.0
12/11/2023,01:41:27,0.000,0.0,0.0,0.0
12/11/2023,01:42:26,0.000,0.0,0.0,0.0
12/11/2023,01:43:27,0.000,0.0,0.0,0.0
12/11/2023,01:44:27,0.000,0.0,0.0,0.0
12/11/2023,01:45:27,0.000,0.0,0.0,0.0
12/11/2023,01:46:26,-0.000,0.0,0.0,0.0
12/11/2023,01:47:27,-0.000,0.0,0.0,0.0
12/11/2023,01:48:26,-0.000,0.0,0.0,0.0
12/11/2023,01:49:27,-0.000,0.0,0.0,0.0
12/11/2023,01:50:27,-0.000,0.0,0.0,0.0
12/11/2023,01:51:26,-0.000,0.0,0.0,0.0
12/11/2023,01:52:26,-0.000,0.0,0.0,0.0
12/11/2023,01:53:26,-0.000,0.0,0.0,0.0
12/11/2023,01:54:26,-0.000,0.0,0.0,0.0
12/11/2023,01:55:27,-0.000,0.0,0.0,0.0
12/11/2023,01:56:27,0.001,0.0,0.0,0.0
12/11/2023,01:57:26,-0.000,0.0,0.0,0.0
12/11/2023,01:58:26,-0.000,0.0,0.0,0.0
12/11/2023,01:59:26,-0.000,0.0,0.0,0.0
12/11/2023,02:00:27,-0.000,0.0,0.0,0.0
12/11/2023,02:01:26,-0.000,0.0,0.0,0.0
12/11/2023,02:02:26,-0.001,0.0,0.0,0.0
12/11/2023,02:03:26,-0.001,0.0,0.0,0.0
12/11/2023,02:04:26,-0.000,0.0,0.0,0.0
12/11/2023,02:05:27,-0.000,0.0,0.0,0.0
12/11/2023,02:06:27,-0.000,0.0,0.0,0.0
12/11/2023,02:07:27,-0.000,0.0,0.0,0.0
12/11/2023,02:08:26,-0.000,0.0,0.0,0.0
12/11/2023,02:09:26,-0.000,0.0,0.0,0.0
12/11/2023,02:10:27,-0.000,0.0,0.0,0.0
12/11/2023,02:11:27,-0.000,0.0,0.0,0.0
12/11/2023,02:12:26,-0.000,0.0,0.0,0.0
12/11/2023,02:13:27,-0.000,0.0,0.0,0.0
12/11/2023,02:14:26,-0.000,0.0,0.0,0.0
12/11/2023,02:15:27,-0.001,0.0,0.0,0.0
12/11/2023,02:16:27,-0.001,0.0,0.0,0.0
12/11/2023,02:17:26,-0.000,0.0,0.0,0.0
12/11/2023,02:18:26,-0.000,0.0,0.0,0.0
12/11/2023,02:19:27,-0.000,0.0,0.0,0.0
12/11/2023,02:20:26,-0.001,0.0,0.0,0.0
12/11/2023,02:21:27,-0.001,0.0,0.0,0.0
12/11/2023,02:22:27,-0.001,0.0,0.0,0.0
12/11/2023,02:23:27,-0.001,0.0,0.0,0.0
12/11/2023,02:24:26,-0.000,0.0,0.0,0.0
12/11/2023,02:25:27,-0.000,0.0,0.0,0.0
12/11/2023,02:26:27,-0.001,0.0,0.0,0.0
12/11/2023,02:27:26,-0.001,0.0,0.0,0.0
12/11/2023,02:28:26,-0.001,0.0,0.0,0.0
12/11/2023,02:29:26,-0.001,0.0,0.0,0.0
12/11/2023,02:30:28,-0.001,0.0,0.0,0.0
12/11/2023,02:31:27,-0.001,0.0,0.0,0.0
12/11/2023,02:32:26,-0.001,0.0,0.0,0.0
12/11/2023,02:33:27,-0.001,0.0,0.0,0.0
12/11/2023,02:34:26,-0.001,0.0,0.0,0.0
12/11/2023,02:35:26,-0.001,0.0,0.0,0.0
12/11/2023,02:36:26,-0.001,0.0,0.0,0.0
12/11/2023,02:37:26,-0.001,0.0,0.0,0.0
12/11/2023,02:38:26,-0.001,0.0,0.0,0.0
12/11/2023,02:39:27,-0.001,0.0,0.0,0.0
12/11/2023,02:40:26,-0.001,0.0,0.0,0.0
12/11/2023,02:41:26,-0.001,0.0,0.0,0.0
12/11/2023,02:42:26,-0.001,0.0,0.0,0.0
12/11/2023,02:43:27,-0.001,0.0,0.0,0.0
12/11/2023,02:44:26,-0.001,0.0,0.0,0.0
12/11/2023,02:45:27,-0.001,0.0,0.0,0.0
12/11/2023,02:46:27,-0.001,0.0,0.0,0.0
12/11/2023,02:47:26,-0.001,0.0,0.0,0.0
12/11/2023,02:48:27,-0.001,0.0,0.0,0.0
12/11/2023,02:49:26,-0.000,0.0,0.0,0.0
12/11/2023,02:50:26,-0.002,0.0,0.0,0.0
12/11/2023,02:51:26,-0.000,0.0,0.0,0.0
12/11/2023,02:52:27,-0.001,0.0,0.0,0.0
12/11/2023,02:53:27,-0.001,0.0,0.0,0.0
12/11/2023,02:54:27,-0.001,0.0,0.0,0.0
12/11/2023,02:55:26,-0.001,0.0,0.0,0.0
12/11/2023,02:56:26,-0.001,0.0,0.0,0.0
12/11/2023,02:57:27,-0.001,0.0,0.0,0.0
12/11/2023,02:58:27,-0.001,0.0,0.0,0.0
12/11/2023,02:59:27,-0.001,0.0,0.0,0.0
12/11/2023,03:00:27,-0.001,0.0,0.0,0.0
12/11/2023,03:01:27,-0.001,0.0,0.0,0.0
12/11/2023,03:02:26,-0.001,0.0,0.0,0.0
12/11/2023,03:03:27,-0.001,0.0,0.0,0.0
12/11/2023,03:04:27,-0.000,0.0,0.0,0.0
12/11/2023,03:05:27,-0.000,0.0,0.0,0.0
12/11/2023,03:06:27,-0.001,0.0,0.0,0.0
12/11/2023,03:07:26,-0.001,0.0,0.0,0.0
12/11/2023,03:08:27,-0.001,0.0,0.0,0.0
12/11/2023,03:09:27,-0.001,0.0,0.0,0.0
12/11/2023,03:10:27,-0.001,0.0,0.0,0.0
12/11/2023,03:11:27,-0.001,0.0,0.0,0.0
12/11/2023,03:12:27,-0.001,0.0,0.0,0.0
12/11/2023,03:13:27,-0.001,0.0,0.0,0.0
12/11/2023,03:14:26,-0.001,0.0,0.0,0.0
12/11/2023,03:15:26,-0.001,0.0,0.0,0.0
12/11/2023,03:16:27,-0.000,0.0,0.0,0.0
12/11/2023,03:17:27,-0.001,0.0,0.0,0.0
12/11/2023,03:18:27,-0.002,0.0,0.0,0.0
12/11/2023,03:19:27,-0.001,0.0,0.0,0.0
12/11/2023,03:20:26,-0.001,0.0,0.0,0.0
12/11/2023,03:21:27,-0.001,0.0,0.0,0.0
12/11/2023,03:22:26,-0.002,0.0,0.0,0.0
12/11/2023,03:23:27,-0.001,0.0,0.0,0.0
12/11/2023,03:24:26,-0.001,0.0,0.0,0.0
12/11/2023,03:25:27,-0.001,0.0,0.0,0.0
12/11/2023,03:26:26,-0.001,0.0,0.0,0.0
12/11/2023,03:27:27,-0.001,0.0,0.0,0.0
12/11/2023,03:28:26,-0.001,0.0,0.0,0.0
12/11/2023,03:29:27,-0.001,0.0,0.0,0.0
12/11/2023,03:30:27,-0.001,0.0,0.0,0.0
12/11/2023,03:31:27,-0.002,0.0,0.0,0.0
12/11/2023,03:32:26,-0.001,0.0,0.0,0.0
12/11/2023,03:33:27,-0.000,0.0,0.0,0.0
12/11/2023,03:34:27,-0.001,0.0,0.0,0.0
12/11/2023,03:35:26,-0.001,0.0,0.0,0.0
12/11/2023,03:36:26,-0.001,0.0,0.0,0.0
12/11/2023,03:37:27,-0.001,0.0,0.0,0.0
12/11/2023,03:38:27,-0.000,0.0,0.0,0.0
12/11/2023,03:39:27,-0.001,0.0,0.0,0.0
12/11/2023,03:40:27,-0.001,0.0,0.0,0.0
12/11/2023,03:41:26,-0.001,0.0,0.0,0.0
12/11/2023,03:42:27,-0.001,0.0,0.0,0.0
12/11/2023,03:43:27,-0.000,0.0,0.0,0.0
12/11/2023,03:44:27,0.001,0.0,0.0,0.0
12/11/2023,03:45:27,-0.001,0.0,0.0,0.0
12/11/2023,03:46:26,-0.000,0.0,0.0,0.0
12/11/2023,03:47:27,-0.000,0.0,0.0,0.0
12/11/2023,03:48:27,-0.001,0.0,0.0,0.0
12/11/2023,03:49:27,-0.000,0.0,0.0,0.0
12/11/2023,03:50:27,-0.000,0.0,0.0,0.0
12/11/2023,03:51:27,-0.000,0.0,0.0,0.0
12/11/2023,03:52:27,-0.000,0.0,0.0,0.0
12/11/2023,03:53:27,-0.000,0.0,0.0,0.0
12/11/2023,03:54:27,-0.000,0.0,0.0,0.0
12/11/2023,03:55:27,-0.000,0.0,0.0,0.0
12/11/2023,03:56:27,-0.000,0.0,0.0,0.0
12/11/2023,03:57:27,-0.000,0.0,0.0,0.0
12/11/2023,03:58:26,-0.000,0.0,0.0,0.0
12/11/2023,03:59:27,-0.000,0.0,0.0,0.0
12/11/2023,04:00:27,-0.001,0.0,0.0,0.0
12/11/2023,04:01:27,-0.000,0.0,0.0,0.0
12/11/2023,04:02:27,-0.000,0.0,0.0,0.0
12/11/2023,04:03:55,-0.000,0.0,0.0,0.0
12/11/2023,04:05:27,-0.001,0.0,0.0,0.0
12/11/2023,04:06:27,-0.001,0.0,0.0,0.0
12/11/2023,04:07:27,-0.000,0.0,0.0,0.0
12/11/2023,04:08:26,-0.000,0.0,0.0,0.0
12/11/2023,04:09:27,-0.000,0.0,0.0,0.0
12/11/2023,04:10:27,-0.001,0.0,0.0,0.0
12/11/2023,04:11:27,-0.000,0.0,0.0,0.0
12/11/2023,04:12:27,-0.000,0.0,0.0,0.0
12/11/2023,04:13:26,-0.000,0.0,0.0,0.0
12/11/2023,04:14:27,-0.000,0.0,0.0,0.0
12/11/2023,04:15:27,-0.000,0.0,0.0,0.0
12/11/2023,04:16:27,-0.000,0.0,0.0,0.0
12/11/2023,04:17:26,-0.000,0.0,0.0,0.0
12/11/2023,04:18:27,-0.000,0.0,0.0,0.0
12/11/2023,04:19:27,-0.001,0.0,0.0,0.0
12/11/2023,04:20:26,-0.000,0.0,0.0,0.0
12/11/2023,04:21:26,-0.000,0.0,0.0,0.0
12/11/2023,04:22:26,0.001,0.0,0.0,0.0
12/11/2023,04:23:27,-0.001,0.0,0.0,0.0
12/11/2023,04:24:27,-0.000,0.0,0.0,0.0
12/11/2023,04:25:26,0.001,0.0,0.0,0.0
12/11/2023,04:26:49,-0.000,0.0,0.0,0.0
12/11/2023,04:27:26,0.001,0.0,0.0,0.0
12/11/2023,04:28:27,-0.000,0.0,0.0,0.0
12/11/2023,04:29:27,-0.000,0.0,0.0,0.0
12/11/2023,04:30:27,-0.001,0.0,0.0,0.0
12/11/2023,04:31:27,-0.001,0.0,0.0,0.0
12/11/2023,04:32:26,-0.000,0.0,0.0,0.0
12/11/2023,04:33:27,-0.000,0.0,0.0,0.0
12/11/2023,04:34:27,-0.000,0.0,0.0,0.0
12/11/2023,04:35:27,-0.000,0.0,0.0,0.0
12/11/2023,04:36:27,-0.000,0.0,0.0,0.0
12/11/2023,04:37:27,-0.000,0.0,0.0,0.0
12/11/2023,04:38:27,-0.000,0.0,0.0,0.0
12/11/2023,04:39:27,-0.000,0.0,0.0,0.0
12/11/2023,04:40:27,0.001,0.0,0.0,0.0
12/11/2023,04:41:27,0.001,0.0,0.0,0.0
12/11/2023,04:42:27,-0.001,0.0,0.0,0.0
12/11/2023,04:43:26,-0.001,0.0,0.0,0.0
12/11/2023,04:44:26,-0.001,0.0,0.0,0.0
12/11/2023,04:45:27,-0.000,0.0,0.0,0.0
12/11/2023,04:46:27,-0.001,0.0,0.0,0.0
12/11/2023,04:47:26,-0.000,0.0,0.0,0.0
12/11/2023,04:48:27,-0.000,0.0,0.0,0.0
12/11/2023,04:49:27,-0.000,0.0,0.0,0.0
12/11/2023,04:50:27,-0.000,0.0,0.0,0.0
12/11/2023,04:51:27,-0.001,0.0,0.0,0.0
12/11/2023,04:52:27,-0.000,0.0,0.0,0.0
12/11/2023,04:53:27,-0.000,0.0,0.0,0.0
12/11/2023,04:54:27,-0.000,0.0,0.0,0.0
12/11/2023,04:55:26,-0.000,0.0,0.0,0.0
12/11/2023,04:56:27,-0.000,0.0,0.0,0.0
12/11/2023,04:57:27,-0.000,0.0,0.0,0.0
12/11/2023,04:58:27,-0.000,0.0,0.0,0.0
12/11/2023,04:59:27,-0.001,0.0,0.0,0.0
12/11/2023,05:00:27,-0.000,0.0,0.0,0.0
12/11/2023,05:01:27,-0.000,0.0,0.0,0.0
12/11/2023,05:02:27,-0.000,0.0,0.0,0.0
12/11/2023,05:03:27,-0.000,0.0,0.0,0.0
12/11/2023,05:04:27,-0.000,0.0,0.0,0.0
12/11/2023,05:05:27,-0.000,0.0,0.0,0.0
12/11/2023,05:06:27,-0.000,0.0,0.0,0.0
12/11/2023,05:07:27,-0.000,0.0,0.0,0.0
12/11/2023,05:08:27,-0.001,0.0,0.0,0.0
12/11/2023,05:09:26,-0.000,0.0,0.0,0.0
12/11/2023,05:10:27,-0.000,0.0,0.0,0.0
12/11/2023,05:11:27,-0.001,0.0,0.0,0.0
12/11/2023,05:12:27,-0.000,0.0,0.0,0.0
12/11/2023,05:13:27,-0.000,0.0,0.0,0.0
12/11/2023,05:14:28,-0.000,0.0,0.0,0.0
12/11/2023,05:15:26,-0.000,0.0,0.0,0.0
12/11/2023,05:16:26,-0.000,0.0,0.0,0.0
12/11/2023,05:17:27,-0.000,0.0,0.0,0.0
12/11/2023,05:18:26,-0.000,0.0,0.0,0.0
12/11/2023,05:19:27,-0.000,0.0,0.0,0.0
12/11/2023,05:20:27,-0.001,0.0,0.0,0.0
12/11/2023,05:21:27,0.001,0.0,0.0,0.0
12/11/2023,05:22:27,-0.000,0.0,0.0,0.0
12/11/2023,05:23:27,-0.000,0.0,0.0,0.0
12/11/2023,05:24:27,-0.000,0.0,0.0,0.0
12/11/2023,05:25:27,-0.000,0.0,0.0,0.0
12/11/2023,05:26:26,-0.000,0.0,0.0,0.0
12/11/2023,05:27:27,-0.000,0.0,0.0,0.0
12/11/2023,05:28:27,-0.000,0.0,0.0,0.0
12/11/2023,05:29:27,0.001,0.0,0.0,0.0
12/11/2023,05:30:27,-0.001,0.0,0.0,0.0
12/11/2023,05:31:27,-0.000,0.0,0.0,0.0
12/11/2023,05:32:27,-0.000,0.0,0.0,0.0
12/11/2023,05:33:27,-0.000,0.0,0.0,0.0
12/11/2023,05:34:27,-0.001,0.0,0.0,0.0
12/11/2023,05:35:26,-0.000,0.0,0.0,0.0
12/11/2023,05:36:27,-0.000,0.0,0.0,0.0
12/11/2023,05:37:27,-0.000,0.0,0.0,0.0
12/11/2023,05:38:27,-0.001,0.0,0.0,0.0
12/11/2023,05:39:27,-0.000,0.0,0.0,0.0
12/11/2023,05:40:26,-0.000,0.0,0.0,0.0
12/11/2023,05:41:27,-0.001,0.0,0.0,0.0
12/11/2023,05:42:27,0.001,0.0,0.0,0.0
12/11/2023,05:43:27,-0.000,0.0,0.0,0.0
12/11/2023,05:44:27,0.001,0.0,0.0,0.0
12/11/2023,05:45:27,-0.001,0.0,0.0,0.0
12/11/2023,05:46:27,-0.000,0.0,0.0,0.0
12/11/2023,05:47:27,-0.000,0.0,0.0,0.0
12/11/2023,05:48:28,-0.000,0.0,0.0,0.0
12/11/2023,05:49:28,-0.000,0.0,0.0,0.0
12/11/2023,05:50:27,-0.001,0.0,0.0,0.0
12/11/2023,05:51:28,-0.000,0.0,0.0,0.0
12/11/2023,05:52:27,-0.000,0.0,0.0,0.0
12/11/2023,05:53:27,-0.001,0.0,0.0,0.0
12/11/2023,05:54:27,-0.000,0.0,0.0,0.0
12/11/2023,05:55:27,-0.000,0.0,0.0,0.0
12/11/2023,05:56:27,-0.000,0.0,0.0,0.0
12/11/2023,05:57:27,-0.000,0.0,0.0,0.0
12/11/2023,05:58:28,-0.000,0.0,0.0,0.0
12/11/2023,05:59:27,-0.001,0.0,0.0,0.0
12/11/2023,06:00:27,-0.000,0.0,0.0,0.0
12/11/2023,06:01:27,-0.000,0.0,0.0,0.0
12/11/2023,06:02:27,-0.000,0.0,0.0,0.0
12/11/2023,06:03:27,-0.000,0.0,0.0,0.0
12/11/2023,06:04:27,-0.001,0.0,0.0,0.0
12/11/2023,06:05:27,-0.000,0.0,0.0,0.0
12/11/2023,06:06:27,-0.000,0.0,0.0,0.0
12/11/2023,06:07:27,-0.000,0.0,0.0,0.0
12/11/2023,06:08:27,-0.000,0.0,0.0,0.0
12/11/2023,06:09:27,-0.000,0.0,0.0,0.0
12/11/2023,06:10:27,-0.000,0.0,0.0,0.0
12/11/2023,06:11:27,-0.001,0.0,0.0,0.0
12/11/2023,06:12:27,-0.000,0.0,0.0,0.0
12/11/2023,06:13:27,-0.000,0.0,0.0,0.0
12/11/2023,06:14:27,-0.000,0.0,0.0,0.0
12/11/2023,06:15:27,-0.001,0.0,0.0,0.0
12/11/2023,06:16:27,-0.000,0.0,0.0,0.0
12/11/2023,06:17:28,-0.000,0.0,0.0,0.0
12/11/2023,06:18:27,-0.001,0.0,0.0,0.0
12/11/2023,06:19:27,-0.000,0.0,0.0,0.0
12/11/2023,06:20:27,-0.001,0.0,0.0,0.0
12/11/2023,06:21:27,-0.001,0.0,0.0,0.0
12/11/2023,06:22:27,-0.001,0.0,0.0,0.0
12/11/2023,06:23:27,-0.001,0.0,0.0,0.0
12/11/2023,06:24:27,-0.001,0.0,0.0,0.0
12/11/2023,06:25:27,-0.001,0.0,0.0,0.0
12/11/2023,06:26:27,-0.001,0.0,0.0,0.0
12/11/2023,06:27:27,-0.001,0.0,0.0,0.0
12/11/2023,06:28:28,-0.000,0.0,0.0,0.0
12/11/2023,06:29:27,-0.001,0.0,0.0,0.0
12/11/2023,06:30:27,-0.001,0.0,0.0,0.0
12/11/2023,06:31:27,-0.001,0.0,0.0,0.0
12/11/2023,06:32:27,-0.001,0.0,0.0,0.0
12/11/2023,06:33:27,-0.001,0.0,0.0,0.0
12/11/2023,06:34:27,0.000,0.0,0.0,0.0
12/11/2023,06:35:27,-0.001,0.0,0.0,0.0
12/11/2023,06:36:27,-0.001,0.0,0.0,0.0
12/11/2023,06:37:27,-0.001,0.0,0.0,0.0
12/11/2023,06:38:27,-0.001,0.0,0.0,0.0
12/11/2023,06:39:27,-0.001,0.0,0.0,0.0
12/11/2023,06:40:27,-0.001,0.0,0.0,0.0
12/11/2023,06:41:27,-0.001,0.0,0.0,0.0
12/11/2023,06:42:27,-0.001,0.0,0.0,0.0
12/11/2023,06:43:27,-0.001,0.0,0.0,0.0
12/11/2023,06:44:27,-0.000,0.0,0.0,0.0
12/11/2023,06:45:27,-0.001,0.0,0.0,0.0
12/11/2023,06:46:27,-0.001,0.0,0.0,0.0
12/11/2023,06:47:27,-0.001,0.0,0.0,0.0
12/11/2023,06:48:27,-0.001,0.0,0.0,0.0
12/11/2023,06:49:27,-0.001,0.0,0.0,0.0
12/11/2023,06:50:27,-0.001,0.0,0.0,0.0
12/11/2023,06:51:27,-0.001,0.0,0.0,0.0
12/11/2023,06:52:27,-0.000,0.0,0.0,0.0
12/11/2023,06:53:28,-0.000,0.0,0.0,0.0
12/11/2023,06:54:27,-0.000,0.0,0.0,0.0
12/11/2023,06:55:27,-0.001,0.0,0.0,0.0
12/11/2023,06:56:27,-0.001,0.0,0.0,0.0
12/11/2023,06:57:27,-0.001,0.0,0.0,0.0
12/11/2023,06:58:27,-0.000,0.0,0.0,0.0
12/11/2023,06:59:27,-0.000,0.0,0.0,0.0
12/11/2023,07:00:27,-0.000,0.0,0.0,0.0
12/11/2023,07:01:27,-0.000,0.0,0.0,0.0
12/11/2023,07:02:27,-0.000,0.0,0.0,0.0
12/11/2023,07:03:27,-0.000,0.0,0.0,0.0
12/11/2023,07:04:27,-0.001,0.0,0.0,0.0
12/11/2023,07:05:27,-0.001,0.0,0.0,0.0
12/11/2023,07:06:27,0.000,0.0,0.0,0.0
12/11/2023,07:07:27,-0.001,0.0,0.0,0.0
12/11/2023,07:08:27,0.001,0.0,0.0,0.0
12/11/2023,07:09:27,0.000,0.0,0.0,0.0
12/11/2023,07:10:28,-0.000,0.0,0.0,0.0
12/11/2023,07:11:27,0.000,0.0,0.0,0.0
12/11/2023,07:12:27,0.000,0.0,0.0,0.0
12/11/2023,07:13:27,0.000,0.0,0.0,0.0
12/11/2023,07:14:27,0.001,0.0,0.0,0.0
12/11/2023,07:15:27,-0.000,0.0,0.0,0.0
12/11/2023,07:16:27,0.001,0.0,0.0,0.0
12/11/2023,07:17:27,0.001,0.0,0.0,0.0
12/11/2023,07:18:27,0.001,0.0,0.0,0.0
12/11/2023,07:19:27,0.002,0.0,0.0,0.0
12/11/2023,07:20:28,0.001,0.0,0.0,0.0
12/11/2023,07:21:27,0.001,0.0,0.0,0.0
12/11/2023,07:22:27,0.000,0.0,0.0,0.0
12/11/2023,07:23:28,0.002,0.0,0.0,0.0
12/11/2023,07:24:27,0.003,0.0,0.0,0.0
12/11/2023,07:25:27,0.003,0.0,0.0,0.0
12/11/2023,07:26:27,0.001,0.0,0.0,0.0
12/11/2023,07:27:27,0.002,0.0,0.0,0.0
12/11/2023,07:28:28,0.002,0.0,0.0,0.0
12/11/2023,07:29:27,0.003,0.0,0.0,0.0
12/11/2023,07:30:27,0.002,0.0,0.0,0.0
12/11/2023,07:31:27,0.003,0.0,0.0,0.0
12/11/2023,07:32:28,0.003,0.0,0.0,0.0
12/11/2023,07:33:27,0.004,0.0,0.0,0.0
12/11/2023,07:34:28,0.004,0.0,0.0,0.0
12/11/2023,07:35:27,0.005,0.0,0.0,0.0
12/11/2023,07:36:27,0.004,0.0,0.0,0.0
12/11/2023,07:37:27,0.004,0.0,0.0,0.0
12/11/2023,07:38:27,0.005,0.0,0.0,0.0
12/11/2023,07:39:27,0.005,0.0,0.0,0.0
12/11/2023,07:40:27,0.005,0.0,0.0,0.0
12/11/2023,07:41:27,0.006,0.0,0.0,0.0
12/11/2023,07:42:27,0.006,0.0,0.0,0.0
12/11/2023,07:43:28,0.006,0.0,0.0,0.0
12/11/2023,07:44:27,0.007,0.0,0.0,0.0
12/11/2023,07:45:27,0.006,0.0,0.0,0.0
12/11/2023,07:46:27,0.007,0.0,0.0,0.0
12/11/2023,07:47:27,0.008,0.0,0.001,0.001
12/11/2023,07:48:27,0.008,0.0,0.001,0.0
12/11/2023,07:49:28,0.009,0.0,0.001,0.0
12/11/2023,07:50:28,0.008,0.0,0.001,0.0
12/11/2023,07:51:27,0.009,0.0,0.001,0.0
12/11/2023,07:52:27,0.010,0.0,0.001,0.0
12/11/2023,07:53:27,0.011,0.0,0.002,0.001
12/11/2023,07:54:27,0.010,0.0,0.002,0.0
12/11/2023,07:55:27,0.010,0.0,0.002,0.0
12/11/2023,07:56:28,0.011,0.0,0.002,0.0
12/11/2023,07:57:28,0.012,0.0,0.002,0.0
12/11/2023,07:58:27,0.012,0.0,0.002,0.0
12/11/2023,07:59:28,0.011,0.0,0.003,0.001
12/11/2023,08:00:27,0.012,0.0,0.003,0.0
12/11/2023,08:01:27,0.012,0.0,0.003,0.0
12/11/2023,08:02:27,0.012,0.0,0.003,0.0
12/11/2023,08:03:27,0.011,0.0,0.003,0.0
12/11/2023,08:04:27,0.013,0.0,0.004,0.001
12/11/2023,08:05:28,0.011,0.0,0.004,0.0
12/11/2023,08:06:27,0.011,0.0,0.004,0.0
12/11/2023,08:07:27,0.011,0.0,0.004,0.0
12/11/2023,08:08:28,0.011,0.0,0.004,0.0
12/11/2023,08:09:27,0.011,0.0,0.005,0.001
12/11/2023,08:10:27,0.011,0.0,0.005,0.0
12/11/2023,08:11:28,0.012,0.0,0.005,0.0
12/11/2023,08:12:27,0.012,0.0,0.005,0.0
12/11/2023,08:13:27,0.012,0.0,0.005,0.0
12/11/2023,08:14:28,0.012,0.0,0.005,0.0
12/11/2023,08:15:27,0.012,0.0,0.006,0.001
12/11/2023,08:16:27,0.012,0.0,0.006,0.0
12/11/2023,08:17:27,0.013,0.0,0.006,0.0
12/11/2023,08:18:27,0.013,0.0,0.006,0.0
12/11/2023,08:19:27,0.013,0.0,0.007,0.001
12/11/2023,08:20:27,0.013,0.0,0.007,0.0
12/11/2023,08:21:27,0.014,0.0,0.007,0.0
12/11/2023,08:22:27,0.014,0.0,0.007,0.0
12/11/2023,08:23:27,0.014,0.0,0.007,0.0
12/11/2023,08:24:28,0.015,0.0,0.008,0.001
12/11/2023,08:25:28,0.014,0.0,0.008,0.0
12/11/2023,08:26:27,0.015,0.0,0.008,0.0
12/11/2023,08:27:27,0.015,0.0,0.008,0.0
12/11/2023,08:28:27,0.015,0.0,0.009,0.001
12/11/2023,08:29:27,0.016,0.0,0.009,0.0
12/11/2023,08:30:28,0.016,0.0,0.009,0.0
12/11/2023,08:31:28,0.016,0.0,0.01,0.001
12/11/2023,08:32:27,0.016,0.0,0.01,0.0
12/11/2023,08:33:27,0.016,0.0,0.01,0.0
12/11/2023,08:34:28,0.017,0.0,0.01,0.0
12/11/2023,08:35:28,0.017,0.0,0.011,0.001
12/11/2023,08:36:27,0.018,0.0,0.011,0.0
12/11/2023,08:37:28,0.017,0.0,0.011,0.0
12/11/2023,08:38:28,0.018,0.0,0.012,0.001
12/11/2023,08:39:27,0.018,0.0,0.012,0.0
12/11/2023,08:40:28,0.018,0.0,0.012,0.0
12/11/2023,08:41:27,0.019,0.0,0.012,0.0
12/11/2023,08:42:27,0.019,0.0,0.013,0.001
12/11/2023,08:43:27,0.020,0.0,0.013,0.0
12/11/2023,08:44:28,0.020,0.0,0.013,0.0
12/11/2023,08:45:28,0.022,0.0,0.014,0.001
12/11/2023,08:46:27,0.023,0.0,0.014,0.0
12/11/2023,08:47:27,0.023,0.0,0.014,0.0
12/11/2023,08:48:28,0.024,0.0,0.015,0.001
12/11/2023,08:49:28,0.024,0.0,0.015,0.0
12/11/2023,08:50:27,0.025,0.0,0.016,0.001
12/11/2023,08:51:28,0.025,0.0,0.016,0.0
12/11/2023,08:52:28,0.024,0.0,0.017,0.001
12/11/2023,08:53:27,0.022,0.0,0.017,0.0
12/11/2023,08:54:27,0.023,0.0,0.017,0.0
12/11/2023,08:55:27,0.023,0.0,0.018,0.001
12/11/2023,08:56:28,0.023,0.0,0.018,0.0
12/11/2023,08:57:28,0.022,0.0,0.018,0.0
12/11/2023,08:58:28,0.021,0.0,0.019,0.001
12/11/2023,08:59:27,0.020,0.0,0.019,0.0
12/11/2023,09:00:27,0.020,0.0,0.019,0.0
12/11/2023,09:01:28,0.018,0.0,0.02,0.001
12/11/2023,09:02:27,0.019,0.0,0.02,0.0
12/11/2023,09:03:27,0.016,0.0,0.02,0.0
12/11/2023,09:04:28,0.016,0.0,0.021,0.001
12/11/2023,09:05:28,0.016,0.0,0.021,0.0
12/11/2023,09:06:27,0.016,0.0,0.021,0.0
12/11/2023,09:07:28,0.015,0.0,0.021,0.0
12/11/2023,09:08:27,0.016,0.0,0.022,0.001
12/11/2023,09:09:27,0.016,0.0,0.022,0.0
12/11/2023,09:10:28,0.016,0.0,0.022,0.0
12/11/2023,09:11:27,0.015,0.0,0.022,0.0
12/11/2023,09:12:27,0.016,0.0,0.023,0.001
12/11/2023,09:13:27,0.017,0.0,0.023,0.0
12/11/2023,09:14:27,0.018,0.0,0.023,0.0
12/11/2023,09:15:27,0.018,0.0,0.024,0.001
12/11/2023,09:16:27,0.019,0.0,0.024,0.0
12/11/2023,09:17:27,0.020,0.0,0.024,0.0
12/11/2023,09:18:27,0.021,0.0,0.025,0.001
12/11/2023,09:19:28,0.022,0.0,0.025,0.0
12/11/2023,09:20:28,0.024,0.0,0.025,0.0
12/11/2023,09:21:27,0.025,0.0,0.026,0.001
12/11/2023,09:22:28,0.027,0.0,0.026,0.0
12/11/2023,09:23:28,0.027,0.0,0.027,0.001
12/11/2023,09:24:27,0.029,0.0,0.027,0.0
12/11/2023,09:25:27,0.030,0.0,0.028,0.001
12/11/2023,09:26:27,0.030,0.0,0.028,0.0
12/11/2023,09:27:27,0.033,0.0,0.029,0.001
12/11/2023,09:28:27,0.035,0.0,0.029,0.0
12/11/2023,09:29:27,0.037,0.0,0.03,0.001
12/11/2023,09:30:28,0.040,0.0,0.03,0.0
12/11/2023,09:31:28,0.041,0.0,0.031,0.001
12/11/2023,09:32:27,0.043,0.0,0.032,0.001
12/11/2023,09:33:28,0.046,0.0,0.032,0.0
12/11/2023,09:34:28,0.047,0.0,0.033,0.001
12/11/2023,09:35:27,0.049,0.0,0.034,0.001
12/11/2023,09:36:27,0.050,0.0,0.035,0.001
12/11/2023,09:37:27,0.053,0.0,0.036,0.001
12/11/2023,09:38:28,0.053,0.0,0.037,0.001
12/11/2023,09:39:28,0.055,0.0,0.038,0.001
12/11/2023,09:40:27,0.055,0.0,0.038,0.0
12/11/2023,09:41:27,0.056,0.0,0.039,0.001
12/11/2023,09:42:28,0.056,0.0,0.04,0.001
12/11/2023,09:43:27,0.057,0.0,0.041,0.001
12/11/2023,09:44:27,0.058,0.0,0.042,0.001
12/11/2023,09:45:27,0.061,0.0,0.043,0.001
12/11/2023,09:46:27,0.062,0.0,0.044,0.001
12/11/2023,09:47:27,0.066,0.0,0.045,0.001
12/11/2023,09:48:27,0.068,0.0,0.046,0.001
12/11/2023,09:49:27,0.071,0.0,0.048,0.002
12/11/2023,09:50:27,0.073,0.0,0.049,0.001
12/11/2023,09:51:28,0.074,0.0,0.05,0.001
12/11/2023,09:52:28,0.072,0.0,0.051,0.001
12/11/2023,09:53:27,0.071,0.0,0.052,0.001
12/11/2023,09:54:27,0.071,0.0,0.054,0.002
12/11/2023,09:55:27,0.069,0.0,0.055,0.001
12/11/2023,09:56:28,0.068,0.0,0.056,0.001
12/11/2023,09:57:27,0.067,0.0,0.057,0.001
12/11/2023,09:58:27,0.066,0.0,0.058,0.001
12/11/2023,09:59:27,0.066,0.0,0.059,0.001
12/11/2023,10:00:28,0.067,0.0,0.06,0.001
12/11/2023,10:01:27,0.067,0.0,0.061,0.001
12/11/2023,10:02:27,0.067,0.0,0.063,0.002
12/11/2023,10:03:27,0.066,0.0,0.064,0.001
12/11/2023,10:04:27,0.067,0.0,0.065,0.001
12/11/2023,10:05:27,0.069,0.0,0.066,0.001
12/11/2023,10:06:28,0.071,0.0,0.067,0.001
12/11/2023,10:07:27,0.074,0.0,0.068,0.001
12/11/2023,10:08:28,0.076,0.0,0.07,0.002
12/11/2023,10:09:28,0.078,0.0,0.071,0.001
12/11/2023,10:10:28,0.077,0.0,0.072,0.001
12/11/2023,10:11:28,0.079,0.0,0.073,0.001
12/11/2023,10:12:27,0.084,0.0,0.075,0.002